User: anonymous   Login
Location: Hepcat Sky Observatory
(29.9800°N, 95.6500°W)
Time: 21:48:19
(UTC-06:00)
Language:

Cosmos 1602 Rocket - Orbit

View from above orbital plane
View from above orbital plane
View from above satellite
View from above satellite

Ground track
Ground track

The orbit data is extracted from the following two-line orbital elements,

1 15332U 84105B   16037.84122808  .00000210  00000-0  22780-4 0  9998
2 15332  82.5357 291.9857 0020528 203.2495 202.1795 14.83201887693016
Epoch (UTC): 06 February 2016 20:11:22
Eccentricity: 0.0020528
inclination: 82.5357°
perigee height: 605 km
apogee height: 633 km
right ascension of ascending node: 291.9857°
argument of perigee: 203.2495°
revolutions per day: 14.83201887
mean anomaly at epoch: 202.1795°
orbit number at epoch: 69301

The dashed part of the orbit path shows where the satellite is in the earth's shadow,  

DLR